Вернуться в каталог

METEOR 3-2

АктивенПогодаPO
NORAD 19336·PAYLOAD·🇷🇺 Russia

Запущен Jul 26, 1988 с Plesetsk Cosmodrome

Loading…

Ближайшие Пролёты (ближайшие 24 часа)

TLE

СвежийSource: Space-Track

Эпоха: Sep 14, 2026, 12:04 UTC

1 19336U 88064A   26257.50331339  .00000067  00000-0  14085-3 0  9991
2 19336  82.5382 267.5408 0016813 348.5391 176.8526 13.17285230833412

Отслеживайте METEOR 3-2 в реальном времени с AllMySat

Download on the App Store